ASTROCAST-0202

导读 | 星芒AI

ASTROCAST-0202 是 ASTROCAST 卫星物联网网络的一部分,旨在提供全球范围的低功耗、广域物联网通信服务。该卫星主要用于接收和转发来自地球表面设备的低带宽数据,适用于远程监测、物流跟踪和环境监测等应用。它运行在低地球轨道,与地面基站协同工作,支持全球范围内的数据连接。作为 ASTROCAST 网络的扩展,该卫星增强了系统的覆盖能力与可靠性,为客户提供实时、高效的物联网通信解决方案。

基本信息
目录编号:
48961
目录名称:
ASTROCAST-0202
国际标识:
2021-059CL
轨道中心:
EARTH
卫星名称:
ASTROCAST-0202
卫星全名:
--
卫星状态:
已陨落 最后检测时间 2025-05-08
发射日期:
2021-06-30 UTC
国别 :
瑞士 (CH)
星等 :
--
轨道信息
数据来源 国际轨道数据
星历时间: 2025-05-04T18:53:48+0800
轨道信息已过期177天
半长轴: 6583.981km
偏心率: 0.0012176
轨道倾角: 97.617°
近地点辐角 269.475°
升交点赤经 296.692°
平近点角 90.514°
近地点: 197.829km
远地点: 213.863km
周期: 88.612分钟
每日圈数: 16.25062
详细信息
使用方式:
暂无